Time,TemperatureF,DewpointF,PressureIn,WindDirection,WindDirectionDegrees,WindSpeedMPH,WindSpeedGustMPH,Humidity,HourlyPrecipIn,Conditions,Clouds,dailyrainin,SolarRadiationWatts/m^2,SoftwareType,DateUTC
2013-04-11 00:12:00,71.0,63.0,-100.00,NE,35,7.0,20.0,76,0.01,,,0.01,0.000000,,2013-04-11 10:12:00,
2013-04-11 00:22:00,71.0,63.0,-100.00,NE,35,7.0,20.0,76,0.01,,,0.01,0.000000,,2013-04-11 10:22:00,
2013-04-11 00:32:00,71.0,63.0,-100.00,NE,35,7.0,20.0,76,0.01,,,0.01,0.000000,,2013-04-11 10:32:00,
2013-04-11 00:41:00,71.0,63.0,-100.00,NE,35,7.0,20.0,76,0.01,,,0.01,0.000000,,2013-04-11 10:41:00,
2013-04-11 01:12:00,71.0,63.0,-100.00,NNE,21,5.0,14.0,76,0.01,,,0.02,0.000000,,2013-04-11 11:12:00,
2013-04-11 01:22:00,71.0,63.0,-100.00,NNE,21,5.0,14.0,76,0.01,,,0.02,0.000000,,2013-04-11 11:22:00,
2013-04-11 01:32:00,71.0,63.0,-100.00,NNE,21,5.0,14.0,76,0.01,,,0.02,0.000000,,2013-04-11 11:32:00,
2013-04-11 01:42:00,71.0,63.0,-100.00,NNE,21,5.0,14.0,76,0.01,,,0.02,0.000000,,2013-04-11 11:42:00,
2013-04-11 02:12:00,73.0,65.0,-100.00,NE,36,6.0,12.0,76,0.00,,,-99.99,0.000000,,2013-04-11 12:12:00,
2013-04-11 02:22:00,73.0,65.0,-100.00,NE,36,6.0,12.0,76,0.00,,,-99.99,0.000000,,2013-04-11 12:22:00,
2013-04-11 02:32:00,73.0,65.0,-100.00,NE,36,6.0,12.0,76,0.00,,,-99.99,0.000000,,2013-04-11 12:32:00,
2013-04-11 02:42:00,73.0,65.0,-100.00,NE,36,6.0,12.0,76,0.00,,,-99.99,0.000000,,2013-04-11 12:42:00,
2013-04-11 03:02:00,73.0,65.0,-100.00,NE,42,7.0,12.0,75,0.00,,,-99.99,0.000000,,2013-04-11 13:02:00,
2013-04-11 03:12:00,73.0,65.0,-100.00,NE,42,7.0,12.0,75,0.00,,,-99.99,0.000000,,2013-04-11 13:12:00,
2013-04-11 03:22:00,73.0,65.0,-100.00,NE,42,7.0,12.0,75,0.00,,,-99.99,0.000000,,2013-04-11 13:22:00,
2013-04-11 03:32:00,73.0,65.0,-100.00,NE,42,7.0,12.0,75,0.00,,,-99.99,0.000000,,2013-04-11 13:32:00,
2013-04-11 03:42:00,73.0,65.0,-100.00,NE,42,7.0,12.0,75,0.00,,,-99.99,0.000000,,2013-04-11 13:42:00,
2013-04-11 04:02:00,71.0,63.0,-100.00,NNE,31,6.0,9.0,76,0.00,,,0.02,0.000000,,2013-04-11 14:02:00,
2013-04-11 04:12:00,71.0,63.0,-100.00,NNE,31,6.0,9.0,76,0.00,,,0.02,0.000000,,2013-04-11 14:12:00,
2013-04-11 04:22:00,71.0,63.0,-100.00,NNE,31,6.0,9.0,76,0.00,,,0.02,0.000000,,2013-04-11 14:22:00,
2013-04-11 04:32:00,71.0,63.0,-100.00,NNE,31,6.0,9.0,76,0.00,,,0.02,0.000000,,2013-04-11 14:32:00,
2013-04-11 04:42:00,71.0,63.0,-100.00,NNE,31,6.0,9.0,76,0.00,,,0.02,0.000000,,2013-04-11 14:42:00,
2013-04-11 07:12:00,70.0,61.0,-100.00,NNE,14,5.0,8.0,73,-99.99,,,0.02,11.000000,,2013-04-11 17:12:00,
2013-04-11 07:23:00,70.0,61.0,-100.00,NNE,14,5.0,8.0,73,-99.99,,,0.02,11.000000,,2013-04-11 17:23:00,
2013-04-11 07:32:00,70.0,61.0,-100.00,NNE,14,5.0,8.0,73,-99.99,,,0.02,11.000000,,2013-04-11 17:32:00,
2013-04-11 07:42:00,70.0,61.0,-100.00,NNE,14,5.0,8.0,73,-99.99,,,0.02,11.000000,,2013-04-11 17:42:00,
2013-04-11 08:13:00,76.0,64.0,-100.00,NE,44,6.0,8.0,67,0.00,,,0.02,101.000000,,2013-04-11 18:13:00,
2013-04-11 08:22:00,76.0,64.0,-100.00,NE,44,6.0,8.0,67,0.00,,,0.02,101.000000,,2013-04-11 18:22:00,
2013-04-11 08:32:00,76.0,64.0,-100.00,NE,44,6.0,8.0,67,0.00,,,0.02,101.000000,,2013-04-11 18:32:00,
2013-04-11 08:42:00,76.0,64.0,-100.00,NE,44,6.0,8.0,67,0.00,,,0.02,101.000000,,2013-04-11 18:42:00,
2013-04-11 09:03:00,79.0,64.0,-100.00,East,80,5.0,11.0,60,0.00,,,0.02,304.000000,,2013-04-11 19:03:00,
2013-04-11 09:13:00,79.0,64.0,-100.00,East,80,5.0,11.0,60,0.00,,,0.02,304.000000,,2013-04-11 19:13:00,
2013-04-11 09:22:00,79.0,64.0,-100.00,East,80,5.0,11.0,60,0.00,,,0.02,304.000000,,2013-04-11 19:22:00,
2013-04-11 09:32:00,79.0,64.0,-100.00,East,80,5.0,11.0,60,0.00,,,0.02,304.000000,,2013-04-11 19:32:00,
2013-04-11 09:42:00,79.0,64.0,-100.00,East,80,5.0,11.0,60,0.00,,,0.02,304.000000,,2013-04-11 19:42:00,
2013-04-11 10:02:00,79.0,64.0,-100.00,East,89,12.0,17.0,61,0.00,,,0.02,774.000000,,2013-04-11 20:02:00,
2013-04-11 10:13:00,79.0,64.0,-100.00,East,89,12.0,17.0,61,0.00,,,0.02,774.000000,,2013-04-11 20:13:00,
2013-04-11 10:21:00,79.0,64.0,-100.00,East,89,12.0,17.0,61,0.00,,,0.02,774.000000,,2013-04-11 20:21:00,
2013-04-11 10:33:00,79.0,64.0,-100.00,East,89,12.0,17.0,61,0.00,,,0.02,774.000000,,2013-04-11 20:33:00,
2013-04-11 10:42:00,79.0,64.0,-100.00,East,89,12.0,17.0,61,0.00,,,0.02,774.000000,,2013-04-11 20:42:00,
2013-04-11 11:02:00,80.0,65.0,-100.00,East,84,15.0,20.0,61,0.00,,,0.02,913.000000,,2013-04-11 21:02:00,
2013-04-11 11:12:00,80.0,65.0,-100.00,East,84,15.0,20.0,61,0.00,,,0.02,913.000000,,2013-04-11 21:12:00,
2013-04-11 11:22:00,80.0,65.0,-100.00,East,84,15.0,20.0,61,0.00,,,0.02,913.000000,,2013-04-11 21:22:00,
2013-04-11 11:32:00,80.0,65.0,-100.00,East,84,15.0,20.0,61,0.00,,,0.02,913.000000,,2013-04-11 21:32:00,
2013-04-11 11:42:00,80.0,65.0,-100.00,East,84,15.0,20.0,61,0.00,,,0.02,913.000000,,2013-04-11 21:42:00,
2013-04-11 12:13:00,78.0,64.0,-100.00,East,82,18.0,25.0,63,0.00,,,0.02,1021.000000,,2013-04-11 22:13:00,
2013-04-11 12:23:00,78.0,64.0,-100.00,East,82,18.0,25.0,63,0.00,,,0.02,1021.000000,,2013-04-11 22:23:00,
2013-04-11 12:32:00,78.0,64.0,-100.00,East,82,18.0,25.0,63,0.00,,,0.02,1021.000000,,2013-04-11 22:32:00,
2013-04-11 12:43:00,78.0,64.0,-100.00,East,82,18.0,25.0,63,0.00,,,0.02,1021.000000,,2013-04-11 22:43:00,
2013-04-11 13:03:00,75.0,63.0,-100.00,East,92,8.0,23.0,67,0.00,,,0.02,680.000000,,2013-04-11 23:03:00,
2013-04-11 13:12:00,75.0,63.0,-100.00,East,92,8.0,23.0,67,0.00,,,0.02,680.000000,,2013-04-11 23:12:00,
2013-04-11 13:22:00,75.0,63.0,-100.00,East,92,8.0,23.0,67,0.00,,,0.02,680.000000,,2013-04-11 23:22:00,
2013-04-11 13:32:00,75.0,63.0,-100.00,East,92,8.0,23.0,67,0.00,,,0.02,680.000000,,2013-04-11 23:32:00,
2013-04-11 13:42:00,75.0,63.0,-100.00,East,92,8.0,23.0,67,0.00,,,0.02,680.000000,,2013-04-11 23:42:00,
2013-04-11 14:02:00,77.0,65.0,-100.00,East,84,12.0,20.0,66,0.00,,,0.02,426.000000,,2013-04-12 00:02:00,
2013-04-11 14:12:00,77.0,65.0,-100.00,East,84,12.0,20.0,66,0.00,,,0.02,426.000000,,2013-04-12 00:12:00,
2013-04-11 14:22:00,77.0,65.0,-100.00,East,84,12.0,20.0,66,0.00,,,0.02,426.000000,,2013-04-12 00:22:00,
2013-04-11 14:32:00,77.0,65.0,-100.00,East,84,12.0,20.0,66,0.00,,,0.02,426.000000,,2013-04-12 00:32:00,
2013-04-11 14:42:00,77.0,65.0,-100.00,East,84,12.0,20.0,66,0.00,,,0.02,426.000000,,2013-04-12 00:42:00,
2013-04-11 15:12:00,80.0,65.0,-100.00,East,79,13.0,19.0,60,0.00,,,0.02,332.000000,,2013-04-12 01:12:00,
2013-04-11 15:22:00,80.0,65.0,-100.00,East,79,13.0,19.0,60,0.00,,,0.02,332.000000,,2013-04-12 01:22:00,
2013-04-11 15:32:00,80.0,65.0,-100.00,East,79,13.0,19.0,60,0.00,,,0.02,332.000000,,2013-04-12 01:32:00,
2013-04-11 15:42:00,80.0,65.0,-100.00,East,79,13.0,19.0,60,0.00,,,0.02,332.000000,,2013-04-12 01:42:00,
2013-04-11 16:02:00,78.0,63.0,-100.00,ENE,73,14.0,21.0,60,0.00,,,0.02,321.000000,,2013-04-12 02:02:00,
2013-04-11 16:12:00,78.0,63.0,-100.00,ENE,73,14.0,21.0,60,0.00,,,0.02,321.000000,,2013-04-12 02:12:00,
2013-04-11 16:22:00,78.0,63.0,-100.00,ENE,73,14.0,21.0,60,0.00,,,0.02,321.000000,,2013-04-12 02:22:00,
2013-04-11 16:32:00,78.0,63.0,-100.00,ENE,73,14.0,21.0,60,0.00,,,0.02,321.000000,,2013-04-12 02:32:00,
2013-04-11 16:42:00,78.0,63.0,-100.00,ENE,73,14.0,21.0,60,0.00,,,0.02,321.000000,,2013-04-12 02:42:00,
2013-04-11 17:02:00,77.0,63.0,-100.00,ENE,76,13.0,21.0,61,0.00,,,0.02,211.000000,,2013-04-12 03:02:00,
2013-04-11 17:12:00,77.0,63.0,-100.00,ENE,76,13.0,21.0,61,0.00,,,0.02,211.000000,,2013-04-12 03:12:00,
2013-04-11 17:22:00,77.0,63.0,-100.00,ENE,76,13.0,21.0,61,0.00,,,0.02,211.000000,,2013-04-12 03:22:00,
2013-04-11 17:33:00,77.0,63.0,-100.00,ENE,76,13.0,21.0,61,0.00,,,0.02,211.000000,,2013-04-12 03:33:00,
2013-04-11 17:43:00,77.0,63.0,-100.00,ENE,76,13.0,21.0,61,0.00,,,0.02,211.000000,,2013-04-12 03:43:00,
2013-04-11 18:13:00,76.0,61.0,-100.00,ENE,74,13.0,18.0,60,0.00,,,0.02,93.000000,,2013-04-12 04:13:00,
2013-04-11 18:22:00,76.0,61.0,-100.00,ENE,74,13.0,18.0,60,0.00,,,0.02,93.000000,,2013-04-12 04:22:00,
2013-04-11 18:33:00,76.0,61.0,-100.00,ENE,74,13.0,18.0,60,0.00,,,0.02,93.000000,,2013-04-12 04:33:00,
2013-04-11 18:43:00,76.0,61.0,-100.00,ENE,74,13.0,18.0,60,0.00,,,0.02,93.000000,,2013-04-12 04:43:00,
2013-04-11 19:03:00,77.0,62.0,-100.00,ENE,69,10.0,18.0,60,0.00,,,0.02,25.000000,,2013-04-12 05:03:00,
2013-04-11 19:12:00,77.0,62.0,-100.00,ENE,69,10.0,18.0,60,0.00,,,0.02,25.000000,,2013-04-12 05:12:00,
2013-04-11 19:22:00,77.0,62.0,-100.00,ENE,69,10.0,18.0,60,0.00,,,0.02,25.000000,,2013-04-12 05:22:00,
2013-04-11 19:32:00,77.0,62.0,-100.00,ENE,69,10.0,18.0,60,0.00,,,0.02,25.000000,,2013-04-12 05:32:00,
2013-04-11 19:42:00,77.0,62.0,-100.00,ENE,69,10.0,18.0,60,0.00,,,0.02,25.000000,,2013-04-12 05:42:00,
2013-04-11 20:02:00,75.0,62.0,-100.00,East,79,10.0,15.0,63,0.00,,,0.02,0.000000,,2013-04-12 06:02:00,
2013-04-11 20:12:00,75.0,62.0,-100.00,East,79,10.0,15.0,63,0.00,,,0.02,0.000000,,2013-04-12 06:12:00,
2013-04-11 20:22:00,75.0,62.0,-100.00,East,79,10.0,15.0,63,0.00,,,0.02,0.000000,,2013-04-12 06:22:00,
2013-04-11 20:32:00,75.0,62.0,-100.00,East,79,10.0,15.0,63,0.00,,,0.02,0.000000,,2013-04-12 06:32:00,
2013-04-11 20:42:00,75.0,62.0,-100.00,East,79,10.0,15.0,63,0.00,,,0.02,0.000000,,2013-04-12 06:42:00,
2013-04-11 21:11:00,76.0,62.0,-100.00,ENE,73,9.0,14.0,63,0.00,,,0.02,0.000000,,2013-04-12 07:11:00,
2013-04-11 21:22:00,76.0,62.0,-100.00,ENE,73,9.0,14.0,63,0.00,,,0.02,0.000000,,2013-04-12 07:22:00,
2013-04-11 21:32:00,76.0,62.0,-100.00,ENE,73,9.0,14.0,63,0.00,,,0.02,0.000000,,2013-04-12 07:32:00,
2013-04-11 21:42:00,76.0,62.0,-100.00,ENE,73,9.0,14.0,63,0.00,,,0.02,0.000000,,2013-04-12 07:42:00,
2013-04-11 22:12:00,75.0,62.0,-100.00,NE,37,3.0,13.0,64,0.00,,,0.02,0.000000,,2013-04-12 08:12:00,
2013-04-11 22:22:00,75.0,62.0,-100.00,NE,37,3.0,13.0,64,0.00,,,0.02,0.000000,,2013-04-12 08:22:00,
2013-04-11 22:32:00,75.0,62.0,-100.00,NE,37,3.0,13.0,64,0.00,,,0.02,0.000000,,2013-04-12 08:32:00,
2013-04-11 22:42:00,75.0,62.0,-100.00,NE,37,3.0,13.0,64,0.00,,,0.02,0.000000,,2013-04-12 08:42:00,
2013-04-11 23:12:00,75.0,62.0,-100.00,NE,51,5.0,12.0,65,0.00,,,0.02,0.000000,,2013-04-12 09:12:00,
2013-04-11 23:22:00,75.0,62.0,-100.00,NE,51,5.0,12.0,65,0.00,,,0.02,0.000000,,2013-04-12 09:22:00,
2013-04-11 23:32:00,75.0,62.0,-100.00,NE,51,5.0,12.0,65,0.00,,,0.02,0.000000,,2013-04-12 09:32:00,
2013-04-11 23:43:00,75.0,62.0,-100.00,NE,51,5.0,12.0,65,0.00,,,0.02,0.000000,,2013-04-12 09:43:00,